EW7939 Weather Reports


time (UTC)temp
C
wind
direction
speed
KPH
gust
KPH
rain 1hr
cm
rain 24hr
cm
rain mn
cm
humidity
%
barometer
mb
20260508013024 16 234 0.0 3.2 0.00 0.00 0.00 55 1009.4
20260508011523 17 234 0.0 8.0 0.00 0.00 0.00 53 1009.4
20260508010039 17 242 0.0 4.8 0.00 0.00 0.00 52 1009.3
20260508004526 18 246 1.6 11.3 0.00 0.00 0.00 51 1009.3
20260508003022 18 277 6.4 16.1 0.00 0.00 0.00 50 1009.4
20260508001521 18 252 8.0 14.5 0.00 0.00 0.00 48 1009.3
20260508000019 19 257 9.7 24.1 0.00 0.00 0.00 47 1009.4
20260507234519 20 253 9.7 19.3 0.00 0.00 0.00 47 1009.6
20260507233017 20 264 8.0 22.5 0.00 0.00 0.00 48 1009.8
20260507231516 18 214 6.4 12.9 0.00 0.00 0.00 50 1009.9
20260507230019 18 284 9.7 19.3 0.00 0.00 0.00 47 1010.1
20260507224517 19 259 6.4 20.9 0.00 0.00 0.00 48 1010.0
20260507223013 20 236 12.9 20.9 0.00 0.00 0.00 47 1010.1
20260507221512 20 250 9.7 25.7 0.00 0.00 0.00 44 1010.2
20260507220010 20 244 14.5 22.5 0.00 0.00 0.00 45 1010.2
20260507214508 20 183 8.0 25.7 0.00 0.00 0.00 47 1010.2
20260507213005 20 260 12.9 30.6 0.00 0.00 0.00 45 1010.3
20260507211503 20 244 12.9 30.6 0.00 0.00 0.00 48 1010.4
20260507210105 19 252 11.3 27.4 0.00 0.00 0.00 45 1010.6
20260507204601 19 265 17.7 29.0 0.00 0.00 0.00 46 1010.7
20260507203100 19 277 19.3 30.6 0.00 0.00 0.00 44 1011.0
20260507201555 19 232 14.5 30.6 0.00 0.00 0.00 45 1011.1
20260507200051 19 278 14.5 24.1 0.00 0.00 0.00 46 1011.4
20260507194550 19 281 9.7 24.1 0.00 0.00 0.00 50 1011.7
20260507193046 18 255 17.7 37.0 0.00 0.00 0.00 47 1012.0
20260507191544 18 259 16.1 29.0 0.00 0.00 0.00 48 1012.2
20260507190042 18 260 12.9 24.1 0.00 0.00 0.00 49 1012.3
20260507184540 18 281 12.9 38.6 0.00 0.00 0.00 51 1012.3
20260507183046 18 245 12.9 24.1 0.00 0.00 0.00 50 1012.5
20260507181540 17 263 12.9 30.6 0.00 0.00 0.00 52 1012.5
20260507180035 17 264 8.0 25.7 0.00 0.00 0.00 53 1012.8
20260507174529 17 236 12.9 22.5 0.00 0.00 0.00 53 1013.0
20260507173027 16 267 14.5 29.0 0.00 0.00 0.00 53 1013.4
20260507171525 16 240 14.5 27.4 0.00 0.00 0.00 55 1013.5
20260507170023 16 245 11.3 29.0 0.00 0.00 0.00 54 1013.7
20260507164522 17 281 9.7 22.5 0.00 0.00 0.00 53 1013.9
20260507163019 16 288 14.5 25.7 0.00 0.00 0.00 54 1014.2
20260507161526 16 246 12.9 29.0 0.00 0.00 0.00 54 1014.2
20260507160036 16 288 14.5 35.4 0.00 0.00 0.00 54 1014.3
20260507154516 16 202 11.3 25.7 0.00 0.00 0.00 56 1014.3
20260507153011 16 250 12.9 25.7 0.00 0.00 0.00 58 1014.4
20260507151508 15 253 12.9 25.7 0.00 0.00 0.00 60 1014.4
20260507150006 15 278 8.0 29.0 0.00 0.00 0.00 61 1014.6
20260507144501 14 248 12.9 25.7 0.00 0.00 0.00 62 1014.6
20260507143058 13 238 8.0 22.5 0.00 0.00 0.00 65 1014.6
20260507141553 12 264 8.0 17.7 0.00 0.00 0.00 67 1014.7
20260507134545 11 247 6.4 16.1 0.00 0.00 0.00 71 1015.2
20260507133040 10 275 8.0 14.5 0.00 0.00 0.00 74 1015.3
20260507131537 8 237 3.2 14.5 0.00 0.00 0.00 80 1015.5
20260507130031 7 227 4.8 12.9 0.00 0.00 0.00 83 1015.5
20260507124544 6 224 1.6 8.0 0.00 0.00 0.00 85 1015.5
20260507123027 5 293 0.0 0.0 0.00 0.00 0.00 84 1015.4
20260507121525 4 327 0.0 0.0 0.00 0.00 0.00 82 1015.3
20260507120023 4 346 0.0 0.0 0.00 0.00 0.00 80 1015.2
20260507114528 4 346 0.0 0.0 0.00 0.00 0.00 79 1015.2
20260507113023 4 347 0.0 0.0 0.00 0.00 0.00 79 1015.0
20260507111521 4 346 0.0 0.0 0.00 0.00 0.00 78 1015.0
20260507110028 4 346 0.0 0.0 0.00 0.00 0.00 79 1015.0
20260507104520 4 346 0.0 0.0 0.00 0.00 0.00 79 1015.1
20260507103017 4 347 0.0 1.6 0.00 0.00 0.00 80 1015.1
20260507101516 4 347 0.0 0.0 0.00 0.00 0.00 75 1015.3
20260507100021 4 347 0.0 0.0 0.00 0.00 0.00 73 1015.5
20260507094512 4 347 0.0 0.0 0.00 0.00 0.00 73 1015.3
20260507093018 5 347 0.0 0.0 0.00 0.00 0.00 72 1015.4
20260507091510 5 347 0.0 0.0 0.00 0.00 0.00 72 1015.4
20260507090008 5 347 0.0 0.0 0.00 0.00 0.00 72 1015.3
20260507084508 5 347 0.0 0.0 0.00 0.00 0.00 72 1015.2
20260507083003 6 347 0.0 0.0 0.00 0.00 0.00 71 1015.4
20260507081505 6 347 0.0 0.0 0.00 0.00 0.00 72 1015.4
20260507080001 6 347 0.0 0.0 0.00 0.00 0.00 72 1015.4
20260507074612 6 347 0.0 0.0 0.00 0.00 0.00 72 1015.5
20260507073058 6 347 0.0 0.0 0.00 0.00 0.00 73 1015.6
20260507071557 6 347 0.0 0.0 0.00 0.00 0.00 72 1015.7
20260507070109 6 347 0.0 0.0 0.00 0.00 0.00 73 1015.9
20260507064554 6 347 0.0 0.0 0.00 0.03 0.00 71 1016.0
20260507063057 6 347 0.0 0.0 0.00 0.03 0.00 69 1016.0
20260507061549 6 347 0.0 0.0 0.00 0.03 0.00 68 1016.1
20260507060049 6 347 0.0 0.0 0.00 0.03 0.00 68 1016.2
20260507054550 6 347 0.0 0.0 0.00 0.03 0.00 69 1016.2
20260507053044 6 347 0.0 1.6 0.00 0.03 0.00 68 1016.2
20260507051543 6 338 0.0 0.0 0.00 0.03 0.00 66 1016.2
20260507050039 6 338 0.0 0.0 0.00 0.03 0.00 64 1016.2
20260507044542 6 338 0.0 0.0 0.00 0.03 0.03 64 1016.2
20260507043039 6 338 0.0 0.0 0.00 0.03 0.03 65 1016.3
20260507041535 6 338 0.0 0.0 0.00 0.03 0.03 61 1016.2
20260507040034 6 338 0.0 0.0 0.00 0.03 0.03 61 1016.3
20260507034537 7 338 0.0 0.0 0.00 0.03 0.03 60 1016.3
20260507033032 7 338 0.0 0.0 0.00 0.03 0.03 60 1016.3
20260507031531 7 338 0.0 0.0 0.00 0.03 0.03 59 1016.3
20260507030032 8 338 0.0 0.0 0.00 0.03 0.03 58 1016.3
20260507024530 8 338 0.0 0.0 0.00 0.03 0.03 56 1016.2
20260507023030 9 338 0.0 0.0 0.00 0.03 0.03 54 1016.1
20260507021531 10 338 0.0 0.0 0.00 0.03 0.03 51 1016.0
20260507020040 11 338 0.0 0.0 0.00 0.03 0.03 50 1015.8
20260507014529 12 338 0.0 0.0 0.00 0.03 0.03 48 1015.6